When you browse on this site, cookies collect data to enhance your experience and personalize the content and advertising you see.
Visit our Privacy Policy to learn more. By continuing to use the site, you agree to this use of cookies and data.
  • In Portugal
  • List of Countries
  • For 7 days
  • Water Temperature
  • Satellite Maps
  • Weather Map
  • Weather Widgets
  • user-avatar
    Login

    Hourly Weather Sevan

    Today, 21 May, Tuesday

    Time Temperature Precipitation Wind Pressure Humidity
    00:00 +12°C° 0.3 mm 3 mps 641 mmHg 69%
    01:00 +11°C° 0.4 mm 3 mps 641 mmHg 72%
    02:00 +11°C° 0.4 mm 3 mps 641 mmHg 75%
    03:00 +10°C° 0 mm 2 mps 640 mmHg 77%
    04:00 +12°C° 0.5 mm 2 mps 641 mmHg 77%
    05:00 +13°C° 0.5 mm 2 mps 641 mmHg 77%
    06:00 +13°C° 0.5 mm 2 mps 642 mmHg 78%
    07:00 +14°C° 0.1 mm 2 mps 642 mmHg 72%
    08:00 +15°C° 0.1 mm 2 mps 643 mmHg 67%
    09:00 +18°C° 0 mm 1 mps 643 mmHg 62%
    10:00 +17°C° 0.2 mm 2 mps 643 mmHg 59%
    11:00 +18°C° 0.2 mm 2 mps 643 mmHg 55%
    12:00 +19°C° 0.2 mm 2 mps 644 mmHg 52%
    13:00 +19°C° 0.4 mm 2 mps 644 mmHg 52%
    14:00 +20°C° 0.4 mm 2 mps 644 mmHg 52%
    15:00 +18°C° 0 mm 2 mps 644 mmHg 59%
    16:00 +17°C° 0.1 mm 2 mps 644 mmHg 61%
    17:00 +17°C° 0.1 mm 2 mps 644 mmHg 63%
    18:00 +16°C° 0.1 mm 2 mps 644 mmHg 65%
    19:00 +15°C° 0 mm 2 mps 644 mmHg 70%
    20:00 +14°C° 0 mm 2 mps 644 mmHg 74%
    21:00 +13°C° 0 mm 2 mps 643 mmHg 78%
    22:00 +13°C° 0 mm 2 mps 643 mmHg 79%
    23:00 +12°C° 0 mm 2 mps 643 mmHg 80%

    Tomorrow, 22 May, Wednesday

    Time Temperature Precipitation Wind Pressure Humidity
    00:00 +12°C° 0 mm 2 mps 643 mmHg 81%
    01:00 +10°C° 0 mm 2 mps 643 mmHg 81%
    02:00 +10°C° 0 mm 2 mps 643 mmHg 82%
    03:00 +9°C° 0 mm 2 mps 643 mmHg 82%
    04:00 +11°C° 0 mm 1 mps 643 mmHg 80%
    05:00 +12°C° 0 mm 1 mps 643 mmHg 77%
    06:00 +13°C° 0 mm 1 mps 644 mmHg 74%
    07:00 +14°C° 0 mm 1 mps 644 mmHg 67%
    08:00 +16°C° 0 mm 2 mps 644 mmHg 60%
    09:00 +18°C° 0 mm 2 mps 644 mmHg 52%
    10:00 +19°C° 0 mm 2 mps 644 mmHg 50%
    11:00 +20°C° 0 mm 3 mps 644 mmHg 47%
    12:00 +21°C° 0 mm 3 mps 644 mmHg 44%
    13:00 +21°C° 0.3 mm 2 mps 644 mmHg 44%
    14:00 +21°C° 0.3 mm 2 mps 643 mmHg 44%
    15:00 +21°C° 0.3 mm 2 mps 643 mmHg 44%
    16:00 +20°C° 1 mm 2 mps 643 mmHg 51%
    17:00 +19°C° 1 mm 2 mps 643 mmHg 59%
    18:00 +18°C° 1 mm 2 mps 642 mmHg 66%
    19:00 +17°C° 0.6 mm 2 mps 642 mmHg 70%
    20:00 +16°C° 0.6 mm 2 mps 642 mmHg 74%
    21:00 +15°C° 0.6 mm 2 mps 642 mmHg 78%
    22:00 +14°C° 0.1 mm 2 mps 642 mmHg 79%
    23:00 +13°C° 0.1 mm 1 mps 642 mmHg 79%

    Day after tomorrow, 23 May, Thursday

    Time Temperature Precipitation Wind Pressure Humidity
    00:00 +13°C° 0.1 mm 1 mps 642 mmHg 80%
    01:00 +12°C° 0 mm 1 mps 642 mmHg 79%
    02:00 +12°C° 0 mm 1 mps 641 mmHg 78%
    03:00 +12°C° 0 mm 1 mps 641 mmHg 78%
    04:00 +12°C° 0 mm 1 mps 641 mmHg 75%
    05:00 +13°C° 0 mm 1 mps 641 mmHg 72%
    06:00 +13°C° 0 mm 1 mps 641 mmHg 69%
    07:00 +15°C° 0 mm 2 mps 642 mmHg 61%
    08:00 +17°C° 0 mm 2 mps 642 mmHg 52%
    09:00 +19°C° 0 mm 3 mps 642 mmHg 44%
    10:00 +19°C° 0.1 mm 3 mps 642 mmHg 44%
    11:00 +20°C° 0.1 mm 3 mps 642 mmHg 44%
    12:00 +20°C° 0.1 mm 3 mps 642 mmHg 44%
    13:00 +20°C° 0.5 mm 3 mps 642 mmHg 45%
    14:00 +21°C° 0.5 mm 3 mps 641 mmHg 46%
    15:00 +21°C° 0.5 mm 3 mps 641 mmHg 47%
    16:00 +20°C° 0.7 mm 3 mps 641 mmHg 50%
    17:00 +20°C° 0.7 mm 2 mps 641 mmHg 53%
    18:00 +20°C° 0.7 mm 2 mps 641 mmHg 56%
    19:00 +18°C° 0.2 mm 2 mps 641 mmHg 58%
    20:00 +18°C° 0.2 mm 1 mps 641 mmHg 61%
    21:00 +15°C° 0.2 mm 1 mps 641 mmHg 64%
    22:00 +15°C° 0.1 mm 1 mps 641 mmHg 65%
    23:00 +14°C° 0.1 mm 1 mps 641 mmHg 67%

    24 May, Friday

    Time Temperature Precipitation Wind Pressure Humidity
    00:00 +13°C° 0.1 mm 1 mps 641 mmHg 68%
    01:00 +13°C° 0.1 mm 1 mps 641 mmHg 69%
    02:00 +12°C° 0.1 mm 1 mps 641 mmHg 69%
    03:00 +12°C° 0.1 mm 1 mps 641 mmHg 69%
    04:00 +13°C° 0 mm 1 mps 641 mmHg 68%
    05:00 +13°C° 0 mm 1 mps 642 mmHg 67%
    06:00 +14°C° 0 mm 1 mps 642 mmHg 66%
    07:00 +15°C° 0 mm 2 mps 642 mmHg 61%
    08:00 +17°C° 0 mm 2 mps 643 mmHg 56%
    09:00 +19°C° 0 mm 3 mps 643 mmHg 51%
    10:00 +20°C° 0 mm 3 mps 643 mmHg 48%
    11:00 +21°C° 0 mm 3 mps 643 mmHg 46%
    12:00 +22°C° 0 mm 3 mps 643 mmHg 43%
    13:00 +22°C° 0.3 mm 3 mps 643 mmHg 45%
    14:00 +22°C° 0.3 mm 3 mps 643 mmHg 47%
    15:00 +22°C° 0.3 mm 3 mps 642 mmHg 49%
    16:00 +23°C° 0.9 mm 2 mps 642 mmHg 53%
    17:00 +21°C° 0.9 mm 2 mps 642 mmHg 56%
    18:00 +21°C° 0.9 mm 1 mps 642 mmHg 60%
    19:00 +20°C° 0.5 mm 1 mps 642 mmHg 63%
    20:00 +18°C° 0.5 mm 1 mps 643 mmHg 65%
    21:00 +16°C° 0.5 mm 1 mps 643 mmHg 68%
    22:00 +16°C° 0.3 mm 1 mps 643 mmHg 68%
    23:00 +16°C° 0.3 mm 1 mps 643 mmHg 68%

    25 May, Saturday

    Time Temperature Precipitation Wind Pressure Humidity
    00:00 +16°C° 0.3 mm 1 mps 644 mmHg 68%
    01:00 +16°C° 0.4 mm 1 mps 644 mmHg 69%
    02:00 +15°C° 0.4 mm 1 mps 644 mmHg 70%
    03:00 +15°C° 0.4 mm 1 mps 643 mmHg 71%
    04:00 +16°C° 0.2 mm 1 mps 644 mmHg 70%
    05:00 +16°C° 0.2 mm 2 mps 644 mmHg 69%
    06:00 +16°C° 0.2 mm 2 mps 644 mmHg 67%
    07:00 +18°C° 0 mm 2 mps 644 mmHg 60%
    08:00 +20°C° 0 mm 3 mps 645 mmHg 52%
    09:00 +22°C° 0 mm 3 mps 645 mmHg 44%
    10:00 +23°C° 0 mm 4 mps 645 mmHg 42%
    11:00 +25°C° 0 mm 4 mps 645 mmHg 39%
    12:00 +26°C° 0 mm 4 mps 644 mmHg 37%
    13:00 +26°C° 0.1 mm 4 mps 644 mmHg 36%
    14:00 +27°C° 0.1 mm 4 mps 644 mmHg 36%
    15:00 +27°C° 0.1 mm 5 mps 644 mmHg 35%
    16:00 +25°C° 0.7 mm 4 mps 644 mmHg 43%
    17:00 +22°C° 0.7 mm 3 mps 643 mmHg 51%
    18:00 +20°C° 0.7 mm 2 mps 643 mmHg 59%
    19:00 +19°C° 0.1 mm 2 mps 643 mmHg 59%
    20:00 +18°C° 0.1 mm 2 mps 643 mmHg 60%
    21:00 +17°C° 0.1 mm 3 mps 643 mmHg 60%
    22:00 +17°C° 0 mm 2 mps 642 mmHg 59%
    23:00 +16°C° 0 mm 2 mps 642 mmHg 59%

    26 May, Sunday

    Time Temperature Precipitation Wind Pressure Humidity
    00:00 +16°C° 0 mm 2 mps 642 mmHg 58%
    01:00 +16°C° 0 mm 2 mps 641 mmHg 58%
    02:00 +15°C° 0 mm 2 mps 641 mmHg 59%
    03:00 +15°C° 0 mm 2 mps 640 mmHg 60%
    04:00 +16°C° 0 mm 2 mps 640 mmHg 60%
    05:00 +16°C° 0 mm 2 mps 641 mmHg 61%
    06:00 +17°C° 0 mm 2 mps 641 mmHg 62%
    07:00 +19°C° 0 mm 2 mps 641 mmHg 54%
    08:00 +21°C° 0 mm 3 mps 641 mmHg 47%
    09:00 +24°C° 0 mm 3 mps 642 mmHg 40%
    10:00 +25°C° 0 mm 3 mps 642 mmHg 38%
    11:00 +26°C° 0 mm 4 mps 642 mmHg 36%
    12:00 +26°C° 0 mm 4 mps 642 mmHg 34%
    13:00 +27°C° 0 mm 4 mps 641 mmHg 33%
    14:00 +27°C° 0 mm 4 mps 641 mmHg 32%
    15:00 +27°C° 0 mm 4 mps 641 mmHg 31%
    16:00 +27°C° 0 mm 3 mps 641 mmHg 35%
    17:00 +26°C° 0 mm 2 mps 641 mmHg 39%
    18:00 +25°C° 0 mm 1 mps 641 mmHg 43%
    19:00 +21°C° 0.1 mm 2 mps 641 mmHg 51%
    20:00 +19°C° 0.1 mm 4 mps 641 mmHg 59%
    21:00 +15°C° 0.1 mm 5 mps 641 mmHg 67%
    22:00 +15°C° 0.1 mm 4 mps 641 mmHg 72%
    23:00 +14°C° 0.1 mm 4 mps 641 mmHg 76%
    Show more